Location: Unspecified
(0.0000°N, 0.0000°E)
Time: 12:36:08
(UTC+00:00)

S-56A Canister/Altair - All Passes

Search period start: 07 October 2022 00:00
Search period end: 17 October 2022 00:00
Orbit: 637 x 2496 km, 38.9° (Epoch: 06 October)

Date Brightness Start Highest point End Pass type
(mag) Time Alt. Az. Time Alt. Az. Time Alt. Az.
07 Oct - 07:39:42 10° NNW 07:44:23 41° NE 07:48:35 10° ESE daylight
07 Oct - 09:45:24 10° WSW 09:48:02 15° SW 09:50:48 10° S daylight
07 Oct - 18:10:48 10° SSW 18:22:11 38° SE 18:35:29 10° ENE visible
07 Oct - 20:14:45 10° SW 20:28:59 80° NW 20:43:49 10° NE visible
07 Oct - 22:24:21 10° W 22:36:17 28° NW 22:47:15 10° NNE visible
08 Oct - 07:07:07 10° NNW 07:11:49 32° NE 07:15:51 10° ESE daylight
08 Oct - 09:12:08 10° W 09:15:25 20° SW 09:18:46 10° S daylight
08 Oct - 17:38:19 10° SSW 17:48:42 32° SE 18:01:08 10° E daylight
08 Oct - 19:41:34 10° SW 19:55:20 89° NW 20:10:28 10° NE visible
08 Oct - 21:50:02 10° W 22:02:38 33° NW 22:14:36 10° NNE visible
09 Oct - 06:34:32 10° NNW 06:39:12 26° NE 06:43:05 10° E daylight
09 Oct - 08:38:59 10° W 08:42:52 26° SW 08:46:38 10° SSE daylight
09 Oct - 17:05:59 10° SSW 17:15:17 27° SE 17:26:32 10° E daylight
09 Oct - 19:08:30 10° SW 19:21:43 83° SE 19:36:58 10° NE visible
09 Oct - 21:15:59 10° W 21:28:57 37° NW 21:41:46 10° NNE visible
09 Oct - 23:37:21 10° NNW 23:37:48 10° NNW 23:38:14 10° NNW visible
10 Oct - 06:01:55 10° NNW 06:06:30 22° NE 06:10:16 10° E daylight
10 Oct - 08:05:54 10° WNW 08:10:22 34° SW 08:14:26 10° SSE daylight
10 Oct - 16:33:52 10° S 16:41:55 22° SE 16:51:40 10° E daylight
10 Oct - 18:35:36 10° SW 18:48:09 74° SE 19:03:20 10° NE visible
10 Oct - 20:42:10 10° WSW 20:55:15 42° NW 21:08:48 10° NNE visible
10 Oct - 22:58:34 10° NW 23:03:59 13° NNW 23:09:10 10° N visible
11 Oct - 05:29:16 10° NNW 05:33:44 19° NNE 05:37:24 10° ENE daylight
11 Oct - 07:32:50 10° WNW 07:37:54 47° SW 07:42:12 10° SSE daylight
11 Oct - 16:02:02 10° S 16:08:37 18° SE 16:16:27 10° ESE daylight
11 Oct - 18:02:49 10° SW 18:14:39 65° SE 18:29:34 10° ENE visible
11 Oct - 20:08:32 10° WSW 20:21:33 48° NW 20:35:42 10° NNE visible
11 Oct - 22:22:37 10° WNW 22:30:09 15° NNW 22:37:24 10° N visible
12 Oct - 04:56:35 10° N 05:00:53 17° NNE 05:04:25 10° ENE visible
12 Oct - 06:59:47 10° NW 07:05:25 65° SW 07:09:55 10° SE daylight
12 Oct - 15:30:44 10° SSE 15:35:22 14° SE 15:40:38 10° ESE daylight
12 Oct - 17:30:10 10° SSW 17:41:14 57° SE 17:55:38 10° ENE daylight
12 Oct - 19:35:07 10° WSW 19:47:53 54° NW 20:02:29 10° NNE visible
12 Oct - 21:47:24 10° WNW 21:56:19 18° NNW 22:05:05 10° N visible
13 Oct - 04:23:52 10° N 04:27:57 15° NNE 04:31:21 10° ENE visible
13 Oct - 06:26:42 10° NW 06:32:54 85° SW 06:37:34 10° SE daylight
13 Oct - 16:57:38 10° SSW 17:07:54 49° SE 17:21:33 10° ENE daylight
13 Oct - 19:01:52 10° WSW 19:14:14 60° NW 19:29:08 10° NE visible
13 Oct - 21:12:38 10° WNW 21:22:30 21° NNW 21:32:29 10° N visible
14 Oct - 03:51:07 10° N 03:54:55 14° NNE 03:58:10 10° NE visible
14 Oct - 05:53:37 10° NW 06:00:20 75° NE 06:05:12 10° SE daylight
14 Oct - 16:25:15 10° SSW 16:34:39 41° SE 16:47:21 10° ENE daylight
14 Oct - 18:28:46 10° WSW 18:40:39 67° NW 18:55:40 10° NE visible
14 Oct - 20:38:14 10° W 20:48:41 24° NNW 20:59:39 10° NNE visible
15 Oct - 03:18:22 10° N 03:21:49 13° NNE 03:24:49 10° NE visible
15 Oct - 05:20:29 10° NW 05:27:42 60° NE 05:32:46 10° ESE visible
15 Oct - 07:28:30 10° WSW 07:31:09 14° SW 07:33:35 10° SSW daylight
15 Oct - 15:53:00 10° SSW 16:01:30 34° SE 16:12:58 10° ENE daylight
15 Oct - 17:55:50 10° SW 18:07:08 75° NW 18:22:06 10° NE visible
15 Oct - 20:04:08 10° W 20:14:54 27° NW 20:26:40 10° NNE visible
16 Oct - 02:45:37 10° N 02:48:36 12° NNE 02:51:16 10° NE visible
16 Oct - 04:47:18 10° NW 04:54:59 50° NE 05:00:17 10° ESE visible
16 Oct - 06:54:29 10° W 06:58:36 19° SW 07:02:04 10° S daylight
16 Oct - 15:20:54 10° S 15:28:26 28° SE 15:38:25 10° E daylight
16 Oct - 17:23:01 10° SW 17:33:41 84° NW 17:48:26 10° NE daylight
16 Oct - 19:30:19 10° W 19:41:09 30° NW 19:53:32 10° NNE visible
